Vertical_Velocity
1 0 -1 -5 -4 4 -5 1 -2 -6 -40 26 -12 5 16 9 3 -1 10 8 11 4 -5 10 1 -1 1 -3 -7 -4 -10 -11 -2 -0 -2 4 3 3 -0 2 -2 -1 2
-1 -1 1 6 3 6 -6 5 1 -11 -6 -2 -13 15 0 -8 3 -3 -1 -1 -1 4 1 2 -3 9 8 -8 -5 -1 4 -1 2 3 2 -0 1 4 8 3 -1 1 -0
-3 -1 1 -3 1 3 -0 -0 3 14 10 -5 1 1 6 -10 -8 5 4 4 3 -3 -1 -1 -3 3 3 6 5 1 -2 2 -7 -4 1 -0 1 2 3 2 1 -0 1
-3 -0 -3 -1 -3 2 1 -3 -1 0 3 -1 7 -1 8 2 -2 -2 2 -3 3 6 1 -2 3 -0 -4 0 0 4 2 3 5 1 6 2 2 1 2 1 1 -0 -0
-3 -5 -2 1 0 -2 7 -1 2 -3 -2 3 4 4 -11 -2 1 1 3 0 -1 8 7 4 -4 -1 8 4 3 0 5 2 -2 1 2 -2 -1 -3 -2 -2 2 5 -0
4 1 3 -3 2 5 2 6 3 3 -3 4 -6 -2 -1 1 0 1 2 -2 -1 -2 -6 1 6 5 -1 2 3 5 5 -4 1 -5 -3 -2 3 2 0 -2 -3 -6 -4
-1 0 0 3 -1 2 0 -4 1 4 -7 -2 6 -8 0 -1 3 5 6 6 4 1 -2 -5 -1 1 2 -2 1 -1 0 5 11 7 2 -1 -1 -2 3 2 -1 1 4
-3 0 2 0 -0 1 -2 0 2 -0 6 -7 4 2 0 5 5 9 6 5 1 1 1 1 -2 2 -3 -1 -1 -2 2 1 1 -3 -1 -3 -3 1 1 1 2 1 -2
-4 -0 -1 -1 -3 -1 3 -0 -2 -0 -2 3 0 -2 2 -1 2 4 5 -1 3 4 4 1 -1 -1 1 1 -0 -1 -0 -1 -3 -0 -1 0 -1 1 1 1 -2 -1 -1
-0 -2 0 3 -1 -3 -1 -0 -1 -1 1 2 -0 6 4 7 5 0 0 4 3 1 0 7 3 1 -3 -1 5 -1 -2 -2 -1 2 -2 2 -1 1 -0 0 -1 -0 -1
-2 -5 0 0 1 -1 -1 2 -1 -3 -0 2 1 7 5 4 -3 1 5 4 4 -1 -2 -1 -1 2 4 -0 2 1 2 -2 -3 -0 -1 -1 0 -2 -2 -0 -1 3 1
-2 2 1 2 1 2 -2 -4 4 1 1 2 -4 -1 2 2 4 -1 4 1 3 -4 -1 1 -0 1 -3 -1 0 4 -3 -1 -4 -2 -1 0 -1 -2 -0 -6 -2 -3 -5
-1 -3 1 2 -0 1 3 -2 -2 -1 1 0 2 5 2 6 1 2 3 6 7 -1 2 3 2 -1 5 3 -1 -1 -5 -3 -0 -2 -1 -2 -0 -2 -1 1 2 -7 2
-2 -1 -1 -1 2 -2 -1 -0 3 3 1 0 2 2 2 2 7 -1 10 1 6 5 5 3 -0 -1 4 2 1 1 2 -1 -2 -1 -2 1 -4 -1 -1 -1 -6 2 -3
1 5 -0 -1 1 -6 -2 0 0 1 3 4 2 0 -1 -3 -4 0 -6 -2 -2 4 -4 -1 1 3 0 0 0 1 -6 -1 -0 -0 -4 -2 -0 0 -2 4 1 -3 1
-2 1 0 3 -3 -3 -0 1 1 -0 1 2 2 8 6 8 3 4 3 1 4 0 -1 -4 -2 -0 -2 -4 -1 3 -3 2 1 -2 1 -3 -2 -0 -1 -2 3 -0 -1
-1 0 1 -3 -2 -0 0 1 1 1 0 0 1 2 4 -2 9 7 3 3 -0 -4 -3 -3 -0 1 0 -1 -0 4 0 -2 1 2 -5 1 2 -3 -2 2 3 -0 -1
2 0 -3 -2 -2 -1 2 1 2 -1 -3 -2 2 1 5 6 4 1 0 3 1 1 0 -0 -2 1 4 -0 -7 -1 0 -0 3 -2 -1 -2 -0 1 3 2 -2 -4 -1
0 -1 -2 -1 0 1 1 3 2 -1 -1 -0 3 10 8 7 3 3 3 2 -3 -3 -2 -3 -0 1 2 -0 -4 -2 2 2 0 -3 -1 2 3 1 -5 -4 -0 1 1
-0 -1 -1 0 0 1 2 0 -0 1 -0 -0 -0 -1 0 1 -2 -4 1 -0 1 1 -0 2 1 -1 -3 -1 -0 0 1 -2 -0 2 4 -1 -4 -4 0 1 1 -1 -1
0 -1 1 1 2 1 1 -1 2 2 -1 0 -1 -0 -0 -3 -5 -0 -1 -0 0 1 1 -1 -2 -1 0 -1 1 1 2 2 1 -3 -6 -2 0 1 0 -0 -0 -1 -1
0 -0 1 0 1 0 2 2 -0 1 -0 -1 -1 -3 0 3 3 2 1 1 0 1 0 1 -0 1 2 2 1 1 -0 -4 -5 -2 0 1 1 1 -0 -1 -1 -1 -1
0 1 0 0 1 1 2 2 2 2 1 1 0 -1 -2 1 1 2 1 0 -0 0 0 -0 -0 -1 -0 -0 -1 -1 -3 -2 -0 1 1 -0 -0 -0 -1 -1 -0 -0 -0
0 1 1 0 1 0 2 1 -1 2 1 0 -0 -1 -1 -1 -1 0 1 1 1 -0 -1 -0 -0 0 -0 -1 -1 -3 -1 1 1 0 -0 -1 -1 -1 -0 -1 1 -0 -1
1 1 0 0 -1 -1 1 0 -0 -1 -0 0 0 1 1 1 0 0 0 -1 0 -0 -1 -1 -1 -1 -1 -1 -2 1 1 0 -1 -1 -1 -1 -0 1 0 -1 0 -0 0
1 1 1 1 -1 -0 -0 -0 -0 -0 -0 -0 0 1 0 -0 -0 -1 -1 -0 -1 -2 -1 -0 0 1 0 0 1 1 0 -0 -0 -1 -1 0 0 0 -0 -0 0 -0 1
Height
1420 1417 1415 1411 1407 1403 1400 1399 1394 1391 1390 1397 1387 1391 1391 1392 1396 1404 1413 1414 1418 1425 1433 1443 1445 1454 1457 1461 1468 1475 1480 1487 1492 1496 1500 1504 1508 1512 1515 1517 1520 1523 1525
1416 1413 1413 1409 1406 1402 1400 1398 1399 1393 1391 1389 1391 1391 1382 1389 1397 1404 1409 1415 1419 1423 1429 1437 1443 1448 1451 1456 1462 1469 1474 1481 1484 1491 1493 1498 1502 1507 1511 1513 1515 1518 1519
1413 1410 1408 1405 1404 1401 1399 1397 1399 1391 1392 1393 1392 1385 1386 1386 1398 1403 1408 1415 1419 1423 1427 1433 1438 1441 1447 1451 1456 1462 1467 1471 1477 1481 1487 1492 1496 1501 1504 1507 1510 1513 1515
1413 1408 1406 1403 1399 1396 1394 1393 1392 1390 1388 1392 1390 1389 1388 1390 1395 1401 1403 1409 1416 1421 1425 1428 1434 1439 1444 1447 1451 1455 1459 1464 1471 1476 1482 1487 1491 1496 1499 1502 1505 1508 1510
1409 1407 1404 1399 1396 1394 1392 1388 1389 1387 1387 1390 1388 1386 1388 1390 1392 1396 1400 1405 1411 1419 1425 1429 1432 1435 1438 1443 1446 1450 1456 1460 1466 1474 1479 1483 1486 1490 1493 1497 1501 1503 1505
1407 1404 1401 1396 1393 1390 1387 1386 1384 1383 1384 1386 1385 1382 1386 1388 1391 1395 1398 1402 1410 1415 1421 1427 1431 1433 1434 1440 1445 1449 1452 1458 1464 1469 1474 1478 1481 1485 1488 1492 1496 1499 1501
1401 1399 1396 1392 1389 1386 1384 1383 1382 1381 1381 1382 1380 1381 1382 1388 1390 1391 1395 1401 1406 1409 1415 1421 1427 1429 1433 1439 1442 1448 1453 1458 1464 1468 1469 1474 1478 1480 1486 1488 1490 1493 1495
1395 1393 1390 1388 1386 1384 1380 1378 1378 1377 1377 1376 1377 1377 1380 1382 1388 1389 1390 1397 1402 1406 1412 1416 1423 1426 1430 1436 1441 1445 1452 1457 1461 1464 1466 1469 1475 1478 1480 1485 1486 1487 1489
1389 1387 1385 1383 1381 1378 1375 1374 1374 1374 1372 1371 1373 1375 1379 1380 1384 1385 1388 1394 1399 1403 1409 1412 1416 1423 1429 1433 1436 1442 1447 1452 1457 1460 1463 1467 1470 1474 1476 1477 1479 1482 1484
1382 1380 1378 1376 1374 1373 1372 1371 1370 1368 1367 1367 1369 1371 1374 1376 1379 1382 1386 1391 1394 1399 1404 1411 1415 1421 1427 1432 1435 1437 1442 1447 1452 1456 1459 1462 1465 1469 1472 1473 1475 1476 1478
1374 1372 1370 1368 1367 1366 1365 1363 1363 1362 1361 1362 1364 1365 1369 1371 1376 1380 1383 1386 1390 1394 1401 1407 1414 1419 1425 1429 1432 1433 1439 1441 1448 1454 1455 1458 1461 1464 1468 1470 1472 1473 1473
1366 1364 1361 1360 1360 1359 1358 1357 1355 1353 1355 1356 1358 1360 1364 1367 1372 1376 1380 1384 1388 1393 1398 1404 1411 1417 1422 1425 1429 1429 1433 1439 1444 1449 1452 1456 1457 1461 1462 1465 1468 1470 1469
1358 1357 1355 1354 1353 1352 1351 1350 1349 1349 1349 1350 1353 1355 1359 1363 1367 1373 1377 1382 1387 1391 1398 1404 1410 1418 1420 1422 1424 1427 1430 1436 1441 1444 1449 1452 1454 1458 1461 1462 1463 1465 1468
1350 1348 1347 1346 1345 1344 1343 1342 1343 1343 1343 1345 1348 1349 1353 1358 1361 1366 1374 1381 1386 1388 1396 1402 1410 1414 1418 1419 1422 1426 1428 1433 1439 1442 1446 1448 1452 1456 1458 1458 1460 1461 1462
1341 1339 1339 1339 1338 1337 1337 1336 1337 1337 1338 1339 1340 1343 1347 1352 1357 1361 1369 1377 1382 1386 1393 1402 1407 1410 1411 1417 1421 1426 1427 1433 1437 1439 1443 1448 1452 1454 1455 1454 1455 1455 1456
1336 1335 1334 1333 1333 1333 1333 1332 1332 1333 1334 1336 1338 1342 1345 1350 1354 1361 1369 1377 1382 1385 1391 1397 1402 1407 1412 1415 1421 1422 1426 1431 1433 1438 1439 1444 1448 1450 1452 1452 1449 1448 1448
1332 1332 1331 1330 1330 1330 1331 1330 1330 1331 1332 1335 1337 1340 1344 1348 1355 1363 1370 1377 1381 1385 1390 1396 1402 1408 1411 1415 1418 1423 1424 1430 1430 1435 1437 1442 1443 1445 1447 1446 1443 1441 1441
1329 1329 1328 1328 1329 1330 1330 1330 1331 1332 1333 1336 1340 1343 1348 1353 1360 1366 1372 1377 1378 1384 1392 1397 1401 1408 1410 1411 1417 1423 1425 1427 1425 1429 1434 1437 1439 1439 1439 1438 1437 1436 1433
1326 1326 1326 1327 1328 1329 1331 1332 1333 1335 1337 1339 1343 1348 1353 1358 1363 1368 1373 1376 1380 1386 1392 1397 1403 1407 1409 1411 1414 1420 1423 1422 1422 1426 1430 1432 1432 1432 1432 1431 1429 1427 1424
1324 1324 1325 1327 1328 1330 1331 1333 1335 1337 1340 1342 1346 1350 1355 1360 1364 1369 1374 1379 1384 1389 1393 1397 1400 1403 1406 1410 1413 1416 1416 1417 1420 1423 1425 1426 1426 1426 1424 1422 1420 1418 1416
1322 1324 1325 1327 1329 1330 1332 1335 1338 1340 1343 1346 1349 1353 1357 1361 1365 1370 1375 1379 1383 1387 1390 1394 1398 1401 1404 1406 1409 1411 1413 1415 1417 1418 1419 1420 1419 1417 1416 1414 1412 1409 1407
1321 1323 1325 1326 1329 1331 1334 1336 1339 1342 1345 1348 1351 1355 1360 1364 1368 1372 1375 1379 1383 1386 1389 1392 1395 1398 1401 1404 1406 1408 1410 1411 1412 1413 1413 1412 1411 1409 1407 1405 1403 1401 1399
1320 1322 1324 1326 1329 1331 1334 1337 1340 1343 1346 1350 1353 1357 1361 1365 1369 1372 1375 1378 1380 1383 1387 1390 1393 1396 1398 1401 1403 1405 1406 1407 1407 1407 1406 1404 1403 1401 1399 1398 1395 1393 1391
1318 1320 1322 1325 1328 1331 1334 1336 1340 1343 1347 1350 1353 1357 1361 1364 1368 1371 1374 1376 1379 1382 1386 1389 1391 1394 1396 1398 1399 1400 1401 1401 1401 1400 1399 1397 1396 1393 1391 1390 1388 1385 1383
1317 1318 1321 1323 1326 1329 1333 1336 1339 1343 1346 1350 1353 1356 1359 1363 1366 1369 1372 1375 1378 1381 1384 1387 1389 1392 1393 1394 1395 1395 1395 1395 1394 1393 1392 1390 1388 1386 1384 1382 1380 1378 1375
1315 1317 1319 1322 1325 1328 1331 1334 1338 1341 1345 1348 1351 1354 1357 1360 1363 1367 1370 1373 1377 1379 1382 1385 1387 1388 1389 1390 1390 1390 1390 1389 1388 1386 1385 1383 1381 1379 1377 1375 1372 1369 1367